• In Uzbekistan
  • List of Countries
  • For 7 days
  • Water Temperature
  • Satellite Maps
  • Weather Map
  • Weather Widgets
  • user-avatar
    Login

    Hourly Weather Novolikars'ke

    Today, 23 May, Wednesday

    Time Temperature Precipitation Wind Pressure Humidity
    00:00 +16°C° 0 mm 2 mps 763 mmHg 68%
    01:00 +15°C° 0 mm 2 mps 763 mmHg 70%
    02:00 +15°C° 0 mm 2 mps 763 mmHg 73%
    03:00 +15°C° 0 mm 2 mps 763 mmHg 74%
    04:00 +15°C° 0 mm 2 mps 763 mmHg 75%
    05:00 +15°C° 0 mm 2 mps 763 mmHg 76%
    06:00 +17°C° 0 mm 2 mps 763 mmHg 69%
    07:00 +19°C° 0 mm 2 mps 763 mmHg 62%
    08:00 +21°C° 0 mm 3 mps 763 mmHg 55%
    09:00 +24°C° 0 mm 3 mps 763 mmHg 51%
    10:00 +25°C° 0 mm 2 mps 763 mmHg 46%
    11:00 +26°C° 0 mm 2 mps 763 mmHg 42%
    12:00 +27°C° 0 mm 2 mps 762 mmHg 40%
    13:00 +28°C° 0 mm 2 mps 762 mmHg 38%
    14:00 +28°C° 0 mm 2 mps 762 mmHg 36%
    15:00 +28°C° 0 mm 2 mps 762 mmHg 36%
    16:00 +28°C° 0 mm 1 mps 761 mmHg 37%
    17:00 +28°C° 0 mm 1 mps 761 mmHg 38%
    18:00 +26°C° 0 mm 2 mps 761 mmHg 43%
    19:00 +25°C° 0 mm 2 mps 761 mmHg 48%
    20:00 +23°C° 0 mm 2 mps 761 mmHg 53%
    21:00 +21°C° 0 mm 2 mps 761 mmHg 58%
    22:00 +20°C° 0 mm 3 mps 761 mmHg 63%
    23:00 +19°C° 0 mm 3 mps 761 mmHg 68%

    Tomorrow, 24 May, Thursday

    Time Temperature Precipitation Wind Pressure Humidity
    00:00 +18°C° 0 mm 3 mps 761 mmHg 69%
    01:00 +18°C° 0 mm 3 mps 761 mmHg 71%
    02:00 +18°C° 0 mm 3 mps 761 mmHg 72%
    03:00 +17°C° 0 mm 3 mps 760 mmHg 73%
    04:00 +17°C° 0 mm 3 mps 760 mmHg 74%
    05:00 +17°C° 0 mm 3 mps 760 mmHg 74%
    06:00 +19°C° 0 mm 3 mps 760 mmHg 70%
    07:00 +21°C° 0 mm 3 mps 760 mmHg 65%
    08:00 +24°C° 0 mm 3 mps 760 mmHg 61%
    09:00 +25°C° 0 mm 3 mps 760 mmHg 55%
    10:00 +27°C° 0 mm 3 mps 760 mmHg 49%
    11:00 +28°C° 0 mm 3 mps 760 mmHg 43%
    12:00 +28°C° 0 mm 3 mps 759 mmHg 41%
    13:00 +29°C° 0 mm 3 mps 759 mmHg 40%
    14:00 +29°C° 0 mm 4 mps 758 mmHg 39%
    15:00 +29°C° 0 mm 4 mps 758 mmHg 41%
    16:00 +28°C° 0 mm 4 mps 758 mmHg 43%
    17:00 +28°C° 0 mm 4 mps 758 mmHg 45%
    18:00 +26°C° 0 mm 4 mps 758 mmHg 51%
    19:00 +25°C° 0 mm 3 mps 758 mmHg 58%
    20:00 +22°C° 0 mm 3 mps 758 mmHg 64%
    21:00 +21°C° 0 mm 3 mps 758 mmHg 67%
    22:00 +20°C° 0 mm 3 mps 758 mmHg 71%
    23:00 +19°C° 0 mm 3 mps 758 mmHg 74%

    Day after tomorrow, 25 May, Friday

    Time Temperature Precipitation Wind Pressure Humidity
    00:00 +19°C° 0 mm 3 mps 758 mmHg 77%
    01:00 +18°C° 0 mm 3 mps 758 mmHg 81%
    02:00 +18°C° 0 mm 3 mps 758 mmHg 84%
    03:00 +18°C° 0 mm 3 mps 758 mmHg 85%
    04:00 +18°C° 0 mm 3 mps 758 mmHg 87%
    05:00 +17°C° 0 mm 4 mps 758 mmHg 88%
    06:00 +19°C° 0 mm 4 mps 758 mmHg 81%
    07:00 +21°C° 0 mm 5 mps 758 mmHg 74%
    08:00 +24°C° 0 mm 6 mps 759 mmHg 66%
    09:00 +26°C° 0 mm 5 mps 759 mmHg 62%
    10:00 +27°C° 0 mm 5 mps 758 mmHg 57%
    11:00 +29°C° 0 mm 5 mps 758 mmHg 53%
    12:00 +29°C° 0 mm 6 mps 758 mmHg 51%
    13:00 +29°C° 0 mm 6 mps 758 mmHg 50%
    14:00 +30°C° 0 mm 6 mps 758 mmHg 48%
    15:00 +29°C° 0 mm 6 mps 758 mmHg 51%
    16:00 +29°C° 0 mm 6 mps 758 mmHg 53%
    17:00 +28°C° 0 mm 6 mps 758 mmHg 56%
    18:00 +27°C° 0.2 mm 6 mps 759 mmHg 62%
    19:00 +24°C° 0.2 mm 6 mps 759 mmHg 69%
    20:00 +22°C° 0.2 mm 5 mps 759 mmHg 75%
    21:00 +22°C° 0 mm 6 mps 760 mmHg 77%
    22:00 +21°C° 0 mm 6 mps 760 mmHg 78%
    23:00 +21°C° 0 mm 6 mps 761 mmHg 80%

    26 May, Saturday

    Time Temperature Precipitation Wind Pressure Humidity
    00:00 +20°C° 0 mm 6 mps 761 mmHg 80%
    01:00 +20°C° 0 mm 6 mps 761 mmHg 81%
    02:00 +19°C° 0 mm 6 mps 762 mmHg 82%
    03:00 +17°C° 0 mm 7 mps 762 mmHg 80%
    04:00 +17°C° 0 mm 7 mps 762 mmHg 79%
    05:00 +16°C° 0 mm 7 mps 763 mmHg 78%
    06:00 +17°C° 0 mm 7 mps 763 mmHg 72%
    07:00 +17°C° 0 mm 7 mps 764 mmHg 66%
    08:00 +18°C° 0 mm 8 mps 764 mmHg 60%
    09:00 +20°C° 0 mm 8 mps 765 mmHg 57%
    10:00 +21°C° 0 mm 8 mps 765 mmHg 53%
    11:00 +22°C° 0 mm 8 mps 765 mmHg 50%
    12:00 +22°C° 0 mm 8 mps 765 mmHg 47%
    13:00 +23°C° 0 mm 8 mps 765 mmHg 44%
    14:00 +23°C° 0 mm 8 mps 765 mmHg 41%
    15:00 +23°C° 0 mm 8 mps 765 mmHg 42%
    16:00 +22°C° 0 mm 8 mps 766 mmHg 42%
    17:00 +22°C° 0 mm 7 mps 766 mmHg 43%
    18:00 +20°C° 0 mm 6 mps 766 mmHg 47%
    19:00 +19°C° 0 mm 6 mps 766 mmHg 51%
    20:00 +16°C° 0 mm 5 mps 767 mmHg 55%
    21:00 +15°C° 0 mm 5 mps 767 mmHg 57%
    22:00 +14°C° 0 mm 5 mps 767 mmHg 58%
    23:00 +14°C° 0 mm 5 mps 767 mmHg 59%

    27 May, Sunday

    Time Temperature Precipitation Wind Pressure Humidity
    00:00 +13°C° 0 mm 5 mps 768 mmHg 62%
    01:00 +12°C° 0 mm 4 mps 768 mmHg 64%
    02:00 +12°C° 0 mm 4 mps 768 mmHg 66%
    03:00 +11°C° 0 mm 4 mps 768 mmHg 68%
    04:00 +11°C° 0 mm 4 mps 768 mmHg 70%
    05:00 +10°C° 0 mm 4 mps 768 mmHg 72%
    06:00 +12°C° 0 mm 5 mps 768 mmHg 65%
    07:00 +14°C° 0 mm 6 mps 768 mmHg 57%
    08:00 +16°C° 0 mm 6 mps 768 mmHg 50%
    09:00 +17°C° 0 mm 6 mps 768 mmHg 46%
    10:00 +19°C° 0 mm 6 mps 767 mmHg 43%
    11:00 +20°C° 0 mm 7 mps 767 mmHg 39%
    12:00 +21°C° 0 mm 7 mps 767 mmHg 38%
    13:00 +22°C° 0 mm 6 mps 766 mmHg 37%
    14:00 +23°C° 0 mm 6 mps 766 mmHg 37%
    15:00 +22°C° 0 mm 6 mps 766 mmHg 38%
    16:00 +22°C° 0 mm 6 mps 765 mmHg 39%
    17:00 +22°C° 0 mm 6 mps 765 mmHg 41%
    18:00 +20°C° 0 mm 5 mps 765 mmHg 47%
    19:00 +18°C° 0 mm 4 mps 766 mmHg 53%
    20:00 +17°C° 0 mm 3 mps 766 mmHg 60%
    21:00 +16°C° 0 mm 3 mps 766 mmHg 62%
    22:00 +14°C° 0 mm 3 mps 766 mmHg 65%
    23:00 +13°C° 0 mm 3 mps 766 mmHg 68%

    28 May, Monday

    Time Temperature Precipitation Wind Pressure Humidity
    00:00 +13°C° 0 mm 4 mps 766 mmHg 69%
    01:00 +12°C° 0 mm 4 mps 766 mmHg 71%
    02:00 +12°C° 0 mm 4 mps 766 mmHg 72%
    03:00 +11°C° 0 mm 4 mps 766 mmHg 74%
    04:00 +11°C° 0 mm 4 mps 766 mmHg 75%
    05:00 +11°C° 0 mm 4 mps 766 mmHg 76%
    06:00 +13°C° 0 mm 5 mps 766 mmHg 68%
    07:00 +16°C° 0 mm 6 mps 766 mmHg 59%
    08:00 +19°C° 0 mm 6 mps 766 mmHg 51%
    09:00 +20°C° 0 mm 6 mps 766 mmHg 47%
    10:00 +22°C° 0 mm 7 mps 766 mmHg 44%
    11:00 +23°C° 0 mm 7 mps 765 mmHg 40%
    12:00 +24°C° 0 mm 6 mps 765 mmHg 39%
    13:00 +26°C° 0 mm 6 mps 765 mmHg 39%
    14:00 +26°C° 0 mm 6 mps 765 mmHg 38%
    15:00 +26°C° 0 mm 6 mps 764 mmHg 40%
    16:00 +26°C° 0 mm 6 mps 764 mmHg 43%
    17:00 +26°C° 0 mm 6 mps 764 mmHg 45%
    18:00 +25°C° 0 mm 5 mps 764 mmHg 52%
    19:00 +22°C° 0 mm 4 mps 764 mmHg 59%
    20:00 +20°C° 0 mm 4 mps 764 mmHg 67%
    21:00 +20°C° 0 mm 4 mps 765 mmHg 70%
    22:00 +19°C° 0 mm 4 mps 765 mmHg 74%
    23:00 +18°C° 0 mm 4 mps 765 mmHg 77%
    Show more